Theta_e
333 322 320 320 318 315 314 313 312 311 312 313 313 312 312 312 312 312 312 312 312 312 314 317 317 317 321 328 329 329 325 321 321 323 340 344 342 344 342 342 345 347 340
331 322 320 320 317 315 315 314 314 312 314 315 315 314 314 314 315 315 315 315 316 318 319 323 327 328 327 328 331 331 331 329 325 319 317 337 343 342 342 341 345 347 341
333 322 321 320 317 315 314 314 315 313 316 317 316 316 317 317 317 318 319 320 323 329 331 332 330 332 334 332 332 331 332 330 329 329 321 314 338 342 342 341 342 346 344
334 323 321 320 316 315 315 315 315 315 317 318 318 318 319 320 321 321 321 323 329 333 334 334 334 335 337 337 335 334 332 332 333 333 324 314 315 323 337 341 341 342 346
334 324 323 321 315 314 316 316 316 316 317 318 319 319 321 322 324 325 327 327 331 335 336 337 336 336 337 339 338 336 334 332 334 334 323 327 327 327 334 339 341 339 344
340 329 322 318 315 314 316 316 316 317 317 319 320 320 322 323 325 327 329 332 335 335 337 338 339 338 337 337 337 336 336 334 335 331 329 329 330 339 340 338 340 339 340
340 339 326 318 315 315 316 317 317 317 318 319 320 320 322 323 324 326 328 331 337 339 340 340 340 337 336 336 337 336 333 334 334 332 334 335 337 332 332 332 335 341 341
337 340 333 322 317 317 317 318 317 318 318 319 320 321 321 322 323 323 326 333 336 339 338 338 337 337 336 334 334 335 334 330 333 334 334 335 336 334 331 331 327 332 341
337 338 340 330 320 318 318 319 318 318 319 319 320 321 322 322 323 323 322 330 335 333 328 326 328 330 333 331 333 333 335 332 329 327 334 334 336 334 331 329 328 326 337
340 337 341 339 332 319 318 319 319 320 320 320 321 322 323 324 322 322 331 332 331 330 330 330 328 326 325 331 331 334 334 335 333 327 324 333 335 335 333 331 329 323 336
339 340 342 341 336 332 320 319 320 321 321 322 322 323 325 326 323 324 333 336 335 334 332 329 324 320 321 328 330 333 335 334 332 328 324 325 332 334 334 333 330 319 334
330 340 339 341 337 335 331 321 320 321 323 325 324 324 325 326 324 330 335 336 335 334 331 330 329 323 324 326 327 332 332 327 331 330 329 330 329 333 335 333 330 320 327
330 335 342 338 337 337 337 333 325 321 323 328 326 325 326 328 333 335 334 334 334 334 332 332 332 328 328 331 331 331 332 330 328 330 328 330 331 332 333 333 329 322 322
331 329 342 339 340 340 340 336 331 329 327 326 328 328 331 335 339 338 337 337 336 336 334 333 333 333 332 332 332 331 332 332 333 332 330 329 332 332 332 332 328 326 322
330 330 332 340 340 342 343 341 339 337 337 335 332 333 335 336 338 337 334 335 335 335 334 333 333 332 332 332 331 330 331 331 332 332 331 331 331 330 331 330 330 330 328
330 330 333 337 341 344 343 341 340 340 340 339 341 339 338 337 338 335 336 338 337 335 335 334 333 332 331 330 330 329 328 329 330 330 331 331 330 330 329 329 332 335 335
331 329 332 337 339 342 343 341 342 343 342 343 342 340 339 338 338 335 337 336 336 336 335 334 332 333 332 330 330 330 329 328 329 329 330 331 330 329 328 328 326 333 335
331 328 331 336 338 338 343 342 343 343 345 345 342 341 340 339 337 335 337 336 335 337 337 334 332 332 331 330 329 331 330 329 329 328 328 330 330 328 327 328 322 323 335
329 328 331 336 338 339 340 343 344 342 343 342 341 338 337 336 336 336 335 335 334 337 337 334 333 333 331 330 329 330 329 328 329 329 329 330 329 327 329 330 327 315 328
329 329 332 335 338 341 344 343 344 344 342 340 339 337 335 334 335 336 336 336 336 337 335 333 333 332 333 331 329 328 328 329 330 329 329 330 327 327 329 328 331 329 324
327 328 331 337 343 348 349 347 344 345 342 340 337 336 335 336 336 337 336 334 336 335 333 333 333 332 331 329 329 328 329 329 329 329 329 329 328 328 329 329 331 331 327
329 333 337 341 347 350 349 348 345 345 341 338 336 335 335 336 336 335 335 333 334 333 332 331 331 331 329 328 328 327 328 327 328 329 329 327 328 328 327 328 328 331 329
340 344 347 348 350 350 349 347 346 344 339 337 336 334 334 334 335 334 333 332 332 330 330 330 329 329 328 327 327 326 328 327 324 327 329 328 328 327 326 329 330 332 331
345 346 349 352 350 349 349 347 345 339 338 337 337 336 335 336 334 333 331 331 331 330 330 330 329 329 329 327 327 326 326 327 325 325 329 329 329 328 328 329 329 331 332
344 344 343 348 349 348 347 345 343 339 337 335 335 335 335 334 333 332 331 330 329 330 330 329 329 329 328 327 327 327 326 326 326 326 324 326 329 329 328 328 328 331 332
343 343 346 348 346 347 345 339 335 336 335 335 333 333 334 334 333 331 329 328 329 329 329 330 328 327 327 328 327 327 327 324 326 325 323 323 326 329 328 328 329 329 331
Wind_Speed
25 33 31 27 23 21 18 17 15 14 12 11 10 9 8 8 7 6 5 5 5 5 2 1 1 1 0 1 1 0 1 3 4 4 3 2 2 2 2 6 10 10 12
27 34 32 29 25 22 20 18 16 14 13 11 10 9 8 7 6 5 4 4 3 3 4 2 1 1 1 1 2 1 1 2 4 5 7 5 4 3 4 4 9 9 12
26 35 34 30 27 24 22 20 17 15 13 12 11 10 8 7 6 4 3 2 3 3 3 2 2 2 2 2 3 3 3 3 3 5 6 9 6 5 6 6 7 9 13
25 36 35 31 27 25 23 21 18 16 14 12 10 9 7 7 6 4 3 2 3 4 5 4 5 5 4 5 4 4 4 4 4 5 6 5 7 8 11 8 9 10 13
25 32 31 30 27 25 23 21 19 17 15 13 11 8 7 6 4 3 3 3 4 6 6 7 7 7 7 9 8 7 5 5 6 7 6 5 7 12 12 10 10 11 14
21 24 29 30 27 26 23 22 20 18 16 14 11 9 7 5 4 3 4 6 7 8 8 9 11 11 9 9 10 10 8 7 8 8 5 5 9 5 10 9 9 11 13
22 22 30 32 31 28 25 23 22 19 18 16 13 10 9 7 5 5 6 7 8 8 9 11 12 13 12 12 11 10 10 10 10 8 8 11 11 12 9 8 8 10 13
26 24 28 34 33 32 29 25 24 21 20 18 16 13 11 9 7 6 7 8 9 10 11 11 12 12 13 13 16 14 13 12 11 10 10 10 7 14 10 7 8 9 12
29 29 28 34 36 34 32 30 27 25 23 21 19 17 14 12 10 7 7 8 10 11 12 13 13 14 15 14 13 16 16 15 14 14 14 9 9 7 10 9 8 9 13
38 36 36 36 38 39 36 34 31 28 27 25 22 20 17 15 13 9 7 9 9 9 10 12 13 14 14 15 15 16 18 16 16 15 17 14 13 12 12 11 10 11 14
35 41 39 39 39 41 41 39 35 32 30 28 25 23 20 19 15 11 9 11 12 11 10 11 11 12 12 13 16 17 18 20 20 18 18 19 15 16 16 13 11 12 13
15 38 43 41 40 41 42 43 40 37 35 33 30 27 24 20 15 11 9 11 11 11 11 11 6 8 10 11 12 14 19 21 22 22 19 17 18 20 17 14 12 12 14
22 14 44 44 42 43 41 42 42 41 38 36 33 30 26 21 15 12 13 15 15 16 14 12 10 11 9 9 9 12 16 21 19 17 23 21 21 21 17 15 13 14 15
28 21 35 44 44 42 38 41 40 39 40 40 35 31 27 23 18 17 14 14 14 15 16 12 10 13 11 11 13 14 7 13 16 16 16 17 16 20 17 15 13 13 16
28 20 17 31 43 46 41 40 38 37 37 35 32 32 29 25 22 20 17 16 14 10 11 10 11 10 14 15 14 14 12 12 13 12 14 19 17 17 17 15 13 15 16
31 20 15 25 42 46 43 42 41 38 37 32 30 28 30 27 24 18 16 17 16 14 14 15 12 10 13 13 14 15 14 12 14 12 9 22 18 16 15 16 15 16 17
23 16 15 25 37 44 44 43 40 38 35 32 32 29 32 30 23 17 16 14 11 15 16 16 17 16 18 15 14 14 14 14 13 12 13 14 14 14 14 16 14 18 18
16 14 15 22 32 43 45 42 38 35 34 32 32 28 29 29 22 18 17 16 14 15 15 15 18 21 21 20 20 16 16 16 17 15 15 16 15 13 16 17 14 19 19
21 20 21 25 30 40 45 38 29 30 27 31 30 23 22 23 21 18 16 16 16 16 14 15 16 18 20 20 21 18 16 15 18 16 19 20 19 15 14 18 16 18 20
19 15 19 26 29 37 39 36 27 25 24 23 26 23 22 22 19 14 16 16 14 13 13 12 15 15 17 18 18 15 17 13 17 18 19 18 17 18 16 13 17 18 21
19 19 21 27 30 33 32 32 29 23 23 23 17 22 19 19 16 15 11 10 12 12 12 12 12 15 17 17 11 11 11 14 13 16 21 20 16 21 19 16 16 19 20
21 15 21 28 32 34 35 29 29 24 22 21 17 17 19 20 14 10 12 12 11 10 12 13 13 14 9 10 6 4 2 4 12 16 19 20 18 20 20 19 19 18 21
12 20 25 29 34 33 31 27 24 22 21 21 17 18 17 14 10 9 8 8 9 9 10 8 10 12 11 11 14 5 2 3 1 13 20 20 19 20 19 21 18 17 15
21 23 25 27 30 27 30 28 29 20 19 20 20 18 17 14 12 9 7 6 7 5 4 6 7 11 12 12 11 18 10 5 2 1 10 18 18 16 17 15 16 15 18
27 26 24 25 28 26 30 27 23 22 21 21 21 19 17 12 8 6 5 4 4 4 5 5 5 7 10 12 11 7 18 17 12 2 2 2 13 15 18 18 17 10 15
27 27 26 28 24 24 25 24 24 21 21 24 20 17 15 11 7 6 6 4 5 4 3 5 5 6 8 12 15 15 7 5 5 3 2 2 5 9 12 13 14 14 13
Wind_Direction
164 167 168 168 163 158 151 143 137 134 129 120 118 113 112 111 111 111 112 120 136 141 141 172 191 188 166 92 99 238 250 258 261 252 259 260 230 228 180 149 131 132 129
165 172 172 171 167 161 157 150 146 144 139 132 130 126 122 118 116 114 117 123 133 136 138 155 234 235 236 205 200 235 251 263 276 267 249 243 235 236 232 164 152 155 145
167 175 174 175 171 165 161 156 157 156 147 144 139 133 132 133 129 123 122 143 164 171 165 194 218 253 263 254 257 241 243 258 284 279 270 239 226 245 237 205 183 173 162
170 177 176 177 174 169 165 164 165 164 159 156 148 141 143 146 144 145 159 197 209 209 205 215 237 249 254 252 247 253 254 252 254 272 275 232 235 266 244 216 197 185 176
164 176 178 178 177 175 172 170 173 173 170 166 159 154 158 158 161 172 208 219 229 229 232 238 242 246 255 257 246 244 248 257 257 265 255 218 290 290 219 203 200 193 186
158 176 183 183 183 181 180 180 181 182 178 176 170 166 172 178 193 212 236 239 235 235 240 246 248 245 248 254 261 246 244 251 259 273 232 271 309 169 170 176 191 201 193
167 176 188 188 187 187 188 188 190 189 188 186 183 180 182 189 208 223 238 244 246 248 255 258 259 263 257 250 249 242 244 245 250 258 254 290 323 216 199 192 184 200 198
181 186 186 190 192 189 190 195 196 196 198 197 193 191 193 198 210 222 232 244 255 262 261 261 261 262 259 255 242 234 240 241 242 251 254 283 307 213 223 220 228 215 208
186 191 185 189 195 196 191 195 200 201 204 205 202 201 203 210 223 233 252 253 254 259 269 271 263 259 259 256 241 234 236 239 241 240 240 258 244 211 190 199 220 228 213
188 191 191 189 193 198 197 197 199 205 209 211 208 209 210 216 226 237 249 249 256 249 260 269 269 267 257 247 248 232 237 238 240 241 239 237 240 240 214 210 219 222 212
181 192 193 192 194 198 200 201 201 205 212 215 213 215 215 218 225 240 243 250 243 244 262 280 272 264 258 244 237 238 240 241 242 243 246 236 237 228 224 212 213 212 209
303 198 195 196 197 198 202 204 204 204 210 215 215 216 217 220 223 227 233 238 258 254 256 264 255 255 250 245 237 234 241 246 245 247 242 241 236 227 210 206 212 208 207
293 199 195 198 201 199 197 203 206 206 210 217 217 218 219 218 214 207 228 239 251 245 244 245 245 239 244 238 224 239 262 243 248 251 237 247 249 217 213 213 209 212 208
274 269 199 202 201 202 194 202 204 206 211 219 218 219 216 209 210 211 219 236 243 243 237 231 248 246 238 242 245 245 241 240 245 251 248 248 212 204 205 211 207 214 212
268 246 217 206 210 203 194 200 203 205 210 212 218 219 216 210 205 218 225 230 238 213 211 231 240 218 224 230 239 244 224 236 251 234 260 218 208 210 212 210 217 216 213
257 240 212 210 208 201 195 200 203 205 209 208 215 215 212 207 208 220 226 230 223 231 211 233 238 220 211 230 250 255 249 251 243 247 232 213 212 213 219 225 221 213 209
241 210 213 202 203 204 200 201 200 201 206 205 209 210 206 205 208 212 228 228 244 243 245 248 248 243 245 242 247 251 252 257 246 239 214 202 208 224 227 235 237 216 211
201 212 214 206 206 207 199 200 200 199 200 204 202 202 201 202 202 209 230 240 251 253 253 258 254 250 250 249 250 251 254 252 243 232 221 209 212 218 233 243 242 222 215
206 219 209 207 202 206 205 193 186 187 187 191 187 186 185 192 197 212 234 239 250 248 254 265 256 249 250 249 247 246 247 246 233 232 221 216 221 233 250 239 237 225 221
230 233 221 207 200 204 201 195 182 183 185 175 189 196 199 197 202 225 232 232 244 247 269 263 251 241 242 244 247 252 243 235 216 225 229 230 236 234 233 239 229 230 224
242 245 242 200 195 188 176 177 181 171 178 180 170 195 197 197 201 209 210 233 245 257 267 260 257 247 252 247 227 235 241 229 225 224 230 230 237 238 236 233 231 244 226
242 244 219 197 184 180 177 172 176 171 167 172 186 177 169 178 194 228 241 249 251 263 264 267 251 246 248 219 182 164 211 259 233 220 225 232 231 226 238 232 243 241 226
181 174 167 172 173 169 167 160 165 172 166 181 183 185 194 202 197 205 227 251 261 264 265 261 243 235 235 210 207 154 132 234 214 221 227 230 231 235 240 236 235 228 225
149 146 141 157 159 153 158 161 163 160 161 182 191 179 182 182 178 213 249 257 263 243 233 242 245 241 236 223 211 224 230 171 186 351 216 229 234 233 232 229 227 215 222
140 134 139 142 150 151 159 164 167 158 165 161 147 144 147 169 202 222 212 245 216 203 245 252 240 246 235 232 209 201 230 250 275 165 234 206 215 228 223 230 231 202 209
129 134 139 143 144 152 158 153 153 143 142 142 143 145 151 155 170 193 201 213 199 227 237 241 239 245 237 231 225 227 192 173 205 180 199 203 189 224 226 243 238 219 209